Monistrol de Calders (Moianès)





Hora UTC 16:40
Temperatura 16.4 ºC
Humedad 56.0 %
Presión 1009.9 hPa
Pluja 0.0 mm
Velocidad viento 17.7 km/h
Dirección viento E

Datos diarios 2024-04-16



Hora UTC (invierno +1h; verano +2h)
Temperatura (ºC) Humedad (%) Presión (hPa) Velocidad viento (km/h) Precipitación (mm)
Hora UTC Aire Humedad Presión Vel. Dir. Vel. Max Dir. Intent. máx 5 min.
00:05 10.8 78.0 1016.2 3.2 SSE 3.2 0.0
00:10 10.8 78.0 1016.2 1.6 SSE 4.8 0.0
00:15 10.7 79.0 1016.2 1.6 SE 4.8 0.0
00:20 10.6 79.0 1016.2 0.0 SE 4.8 0.0
00:25 10.5 79.0 1016.2 1.6 SE 3.2 0.0
00:30 10.3 79.0 1016.2 1.6 SSE 4.8 0.0
00:35 10.2 80.0 1016.1 3.2 SSW 4.8 0.0
00:40 10.1 80.0 1015.9 4.8 SE 8.0 0.0
00:45 9.9 80.0 1015.7 3.2 SSE 9.7 0.0
00:50 9.9 81.0 1015.8 1.6 ESE 9.7 0.0
00:55 9.7 81.0 1015.8 1.6 SSE 6.4 0.0
01:00 9.5 81.0 1015.7 1.6 SSE 6.4 0.0
01:05 9.3 81.0 1015.7 3.2 SE 4.8 0.0
01:10 9.2 82.0 1015.6 0.0 SE 4.8 0.0
01:15 9.2 82.0 1015.6 1.6 E 4.8 0.0
01:20 9.1 82.0 1015.4 0.0 E 4.8 0.0
01:25 8.9 82.0 1015.5 1.6 ENE 3.2 0.0
01:30 8.8 82.0 1015.4 1.6 E 3.2 0.0
01:35 8.8 83.0 1015.5 0.0 E 3.2 0.0
01:40 8.7 83.0 1015.4 1.6 E 1.6 0.0
01:45 8.6 83.0 1015.3 0.0 E 4.8 0.0
01:50 8.5 83.0 1015.3 3.2 E 4.8 0.0
01:55 8.4 83.0 1015.2 4.8 E 6.4 0.0
02:00 8.3 83.0 1015.2 3.2 E 6.4 0.0
02:05 8.2 83.0 1015.1 0.0 E 3.2 0.0
02:10 8.0 83.0 1015.2 1.6 SE 3.2 0.0
02:15 7.8 83.0 1015.1 1.6 SE 4.8 0.0
02:20 7.8 84.0 1015.1 3.2 SE 6.4 0.0
02:25 7.7 84.0 1015.1 3.2 E 6.4 0.0
02:30 7.7 84.0 1015.1 6.4 ENE 8.0 0.0
02:35 7.7 84.0 1015.0 3.2 E 9.7 0.0
02:40 7.6 83.0 1015.1 1.6 WNW 9.7 0.0
02:45 7.4 84.0 1014.9 3.2 NE 4.8 0.0
02:50 7.4 84.0 1014.8 1.6 E 4.8 0.0
02:55 7.3 84.0 1014.9 0.0 E 4.8 0.0
03:00 7.3 84.0 1014.9 0.0 ENE 4.8 0.0
03:05 7.3 85.0 1014.9 0.0 E 3.2 0.0
03:10 7.3 85.0 1014.9 0.0 E 3.2 0.0
03:15 7.3 84.0 1015.1 1.6 SE 3.2 0.0
03:20 7.2 84.0 1015.0 0.0 SE 3.2 0.0
03:25 7.1 84.0 1015.1 1.6 SE 1.6 0.0
03:30 6.9 84.0 1015.0 0.0 SE 1.6 0.0
03:35 6.8 84.0 1015.1 0.0 SE 1.6 0.0
03:40 6.8 85.0 1015.0 0.0 SE 0.0 0.0
03:45 6.7 85.0 1014.9 0.0 SE 1.6 0.0
03:50 6.7 85.0 1014.9 0.0 SE 1.6 0.0
03:55 6.6 85.0 1014.9 0.0 SE 1.6 0.0
04:00 6.6 85.0 1014.6 1.6 SE 1.6 0.0
04:05 6.6 85.0 1014.5 3.2 SE 3.2 0.0
04:10 6.6 85.0 1014.5 0.0 SSE 3.2 0.0
04:15 6.5 85.0 1014.6 1.6 SSE 3.2 0.0
04:20 6.3 85.0 1014.6 1.6 SSE 3.2 0.0
04:25 6.2 85.0 1014.7 1.6 SSE 3.2 0.0
04:30 6.1 85.0 1014.7 0.0 SSE 3.2 0.0
04:35 6.1 86.0 1014.6 0.0 SSE 3.2 0.0
04:40 6.1 86.0 1014.5 3.2 SSE 3.2 0.0
04:45 6.3 86.0 1014.3 1.6 SSE 3.2 0.0
04:50 6.4 86.0 1014.2 0.0 SSE 3.2 0.0
04:55 6.5 86.0 1014.6 0.0 SSE 1.6 0.0
05:00 6.6 85.0 1014.8 0.0 ESE 3.2 0.0
05:05 6.4 85.0 1014.8 1.6 NE 3.2 0.0
05:10 6.5 86.0 1014.9 1.6 NNE 3.2 0.0
05:15 6.6 86.0 1014.9 0.0 NNE 3.2 0.0
05:20 6.6 86.0 1014.8 1.6 NNE 1.6 0.0
05:25 6.6 85.0 1014.8 0.0 NNE 1.6 0.0
05:30 6.7 85.0 1014.8 1.6 ENE 1.6 0.0
05:35 6.8 86.0 1014.7 1.6 SSE 3.2 0.0
05:40 7.0 85.0 1014.6 4.8 SE 4.8 0.0
05:45 7.1 85.0 1014.6 1.6 SSE 4.8 0.0
05:50 7.2 85.0 1014.9 1.6 SE 4.8 0.0
05:55 7.4 85.0 1014.6 1.6 S 4.8 0.0
06:00 7.7 84.0 1014.6 3.2 ESE 4.8 0.0
06:05 7.9 84.0 1014.4 1.6 ESE 4.8 0.0
06:10 8.3 83.0 1014.6 1.6 ESE 3.2 0.0
06:15 8.6 82.0 1014.6 1.6 NE 3.2 0.0
06:20 8.8 81.0 1014.8 1.6 NNE 3.2 0.0
06:25 8.8 80.0 1014.9 3.2 NW 4.8 0.0
06:30 8.9 80.0 1014.8 1.6 NW 4.8 0.0
06:35 9.2 79.0 1014.8 1.6 N 4.8 0.0
06:40 9.3 78.0 1014.8 1.6 WNW 4.8 0.0
06:45 9.5 77.0 1014.7 1.6 WNW 6.4 0.0
06:50 9.6 76.0 1014.7 1.6 WNW 6.4 0.0
06:55 9.7 75.0 1014.6 1.6 WNW 6.4 0.0
07:00 9.8 75.0 1014.7 1.6 WNW 3.2 0.0
07:05 9.9 75.0 1014.5 1.6 WNW 3.2 0.0
07:10 10.1 74.0 1014.5 1.6 WNW 4.8 0.0
07:15 10.3 73.0 1014.3 1.6 WNW 6.4 0.0
07:20 10.4 73.0 1014.3 3.2 WNW 4.8 0.0
07:25 10.5 72.0 1014.4 1.6 WNW 4.8 0.0
07:30 10.7 72.0 1014.3 1.6 NW 3.2 0.0
07:35 11.0 71.0 1014.2 1.6 NW 4.8 0.0
07:40 11.2 69.0 1014.3 0.0 NW 4.8 0.0
07:45 11.3 69.0 1014.2 1.6 NE 4.8 0.0
07:50 11.4 69.0 1014.3 1.6 NE 4.8 0.0
07:55 11.6 68.0 1014.2 0.0 NNW 3.2 0.0
08:00 11.6 67.0 1014.2 1.6 NNW 4.8 0.0
08:05 11.7 67.0 1014.1 1.6 NW 3.2 0.0
08:10 11.7 67.0 1014.2 1.6 NNW 4.8 0.0
08:15 11.8 67.0 1014.3 1.6 NNW 8.0 0.0
08:20 11.8 66.0 1014.3 1.6 E 8.0 0.0
08:25 11.8 68.0 1014.2 1.6 W 4.8 0.0
08:30 12.0 68.0 1014.2 4.8 W 6.4 0.0
08:35 12.0 66.0 1014.3 3.2 NW 6.4 0.0
08:40 12.2 66.0 1014.2 4.8 SW 8.0 0.0
08:45 12.2 67.0 1014.2 3.2 WNW 8.0 0.0
08:50 12.3 66.0 1014.2 4.8 WSW 6.4 0.0
08:55 12.3 65.0 1014.2 4.8 SSW 8.0 0.0
09:00 12.6 65.0 1014.0 3.2 N 8.0 0.0
09:05 13.0 65.0 1014.0 1.6 NE 4.8 0.0
09:10 13.6 65.0 1013.9 4.8 NW 6.4 0.0
09:15 14.1 63.0 1013.7 4.8 NW 11.3 0.0
09:20 14.5 60.0 1013.7 1.6 S 11.3 0.0
09:25 14.6 60.0 1013.7 3.2 N 9.7 0.0
09:30 14.9 59.0 1013.8 8.0 NNW 8.0 0.0
09:35 14.9 59.0 1013.8 1.6 NNW 12.9 0.0
09:40 15.1 58.0 1013.9 4.8 WSW 12.9 0.0
09:45 15.0 60.0 1013.7 3.2 W 9.7 0.0
09:50 15.4 60.0 1013.5 3.2 WNW 9.7 0.0
09:55 15.8 59.0 1013.5 1.6 NNW 11.3 0.0
10:00 16.1 57.0 1013.4 6.4 W 11.3 0.0
10:05 15.7 57.0 1013.5 14.5 SE 14.5 0.0
10:10 15.4 60.0 1013.4 3.2 W 14.5 0.0
10:15 15.7 58.0 1013.3 6.4 NNW 9.7 0.0
10:20 15.8 57.0 1013.3 8.0 SSW 11.3 0.0
10:25 15.9 58.0 1013.2 9.7 SW 17.7 0.0
10:30 15.8 56.0 1013.2 9.7 W 17.7 0.0
10:35 15.9 56.0 1013.0 6.4 WNW 17.7 0.0
10:40 16.2 57.0 1013.0 1.6 W 16.1 0.0
10:45 16.8 55.0 1012.9 8.0 NNW 16.1 0.0
10:50 17.1 53.0 1012.9 4.8 W 14.5 0.0
10:55 17.2 52.0 1012.9 9.7 SSW 16.1 0.0
11:00 16.9 54.0 1012.9 9.7 W 16.1 0.0
11:05 16.9 54.0 1012.8 4.8 NW 16.1 0.0
11:10 17.4 52.0 1012.8 6.4 SW 12.9 0.0
11:15 17.9 53.0 1012.7 3.2 W 12.9 0.0
11:20 18.4 50.0 1012.5 4.8 NW 12.9 0.0
11:25 18.8 48.0 1012.6 3.2 SE 14.5 0.0
11:30 18.8 48.0 1012.4 6.4 ENE 11.3 0.0
11:35 18.3 49.0 1012.3 3.2 SW 12.9 0.0
11:40 18.5 49.0 1012.2 6.4 N 12.9 0.0
11:45 17.9 49.0 1012.2 4.8 W 11.3 0.0
11:50 18.1 49.0 1012.0 11.3 W 17.7 0.0
11:55 18.2 50.0 1011.9 11.3 SSE 17.7 0.0
12:00 18.8 49.0 1011.8 3.2 NW 16.1 0.0
12:05 19.3 46.0 1011.8 6.4 SW 16.1 0.0
12:10 19.4 47.0 1011.7 4.8 SW 12.9 0.0
12:15 19.6 45.0 1011.5 6.4 NNW 19.3 0.0
12:20 19.8 44.0 1011.6 17.7 WSW 19.3 0.0
12:25 19.3 47.0 1011.5 4.8 ENE 19.3 0.0
12:30 19.8 47.0 1011.3 17.7 WSW 17.7 0.0
12:35 20.1 45.0 1011.5 6.4 SSW 17.7 0.0
12:40 20.4 44.0 1011.4 6.4 SW 14.5 0.0
12:45 20.5 43.0 1011.4 1.6 NNE 12.9 0.0
12:50 20.7 43.0 1011.2 3.2 NNE 16.1 0.0
12:55 20.8 43.0 1011.1 6.4 NW 16.1 0.0
13:00 21.1 44.0 1011.1 3.2 ESE 16.1 0.0
13:05 20.9 44.0 1011.0 17.7 S 17.7 0.0
13:10 20.4 43.0 1011.0 6.4 WSW 17.7 0.0
13:15 20.2 44.0 1010.9 8.0 WSW 20.9 0.0
13:20 20.3 44.0 1010.9 6.4 WNW 20.9 0.0
13:25 20.7 44.0 1010.6 12.9 WNW 14.5 0.0
13:30 20.6 43.0 1010.7 6.4 WSW 24.1 0.0
13:35 20.8 44.0 1010.6 4.8 WNW 24.1 0.0
13:40 21.0 41.0 1010.4 14.5 SW 22.5 0.0
13:45 20.9 43.0 1010.4 12.9 W 22.5 0.0
13:50 21.3 43.0 1010.4 3.2 SW 17.7 0.0
13:55 21.2 41.0 1010.3 9.7 S 19.3 0.0
14:00 21.1 43.0 1010.1 11.3 NW 19.3 0.0
14:05 21.4 41.0 1010.2 6.4 WSW 16.1 0.0
14:10 21.2 40.0 1010.1 6.4 W 17.7 0.0
14:15 21.4 41.0 1010.1 11.3 SW 17.7 0.0
14:20 21.5 41.0 1010.0 8.0 SW 20.9 0.0
14:25 21.6 41.0 1009.9 4.8 W 20.9 0.0
14:30 21.7 40.0 1009.9 11.3 WSW 20.9 0.0
14:35 21.6 41.0 1009.8 17.7 SSE 20.9 0.0
14:40 21.0 44.0 1009.8 9.7 SSE 20.9 0.0
14:45 20.1 46.0 1009.8 11.3 SSW 22.5 0.0
14:50 19.8 47.0 1009.8 20.9 SE 22.5 0.0
14:55 19.9 47.0 1009.7 16.1 SSE 22.5 0.0
15:00 19.5 48.0 1009.7 19.3 S 30.6 0.0
15:05 19.2 49.0 1009.6 19.3 ESE 30.6 0.0
15:10 19.2 49.0 1009.6 14.5 ESE 32.2 0.0
15:15 18.9 50.0 1009.6 12.9 S 32.2 0.0
15:20 18.3 51.0 1009.7 20.9 S 35.4 0.0
15:25 17.8 53.0 1009.6 20.9 S 35.4 0.0
15:30 17.8 53.0 1009.7 12.9 S 29.0 0.0
15:35 17.8 53.0 1009.6 22.5 SE 33.8 0.0
15:40 17.8 53.0 1009.8 14.5 S 27.4 0.0
15:45 17.6 53.0 1009.6 29.0 E 33.8 0.0
15:50 17.6 53.0 1009.7 14.5 SSE 29.0 0.0
15:55 17.3 53.0 1009.6 12.9 SSW 35.4 0.0
16:00 17.1 54.0 1009.8 8.0 ENE 35.4 0.0
16:05 17.1 54.0 1009.8 24.1 SSE 33.8 0.0
16:10 16.8 55.0 1009.9 24.1 SSE 33.8 0.0
16:15 16.7 55.0 1009.8 17.7 SSW 32.2 0.0
16:20 16.5 56.0 1009.8 17.7 S 32.2 0.0
16:25 16.4 56.0 1009.8 20.9 SSE 32.2 0.0
16:30 16.5 56.0 1009.8 11.3 SSW 27.4 0.0
16:35 16.3 56.0 1009.9 20.9 ESE 30.6 0.0
16:40 16.4 56.0 1009.9 17.7 E 30.6 0.0
Máxima 21.7 86.0 1016.2 29.0 E 35.4 0.0
Mínima 6.1 40.0 1009.6
Total 0.0